Location: Gleizolles
(44.4833°N, 6.7667°E)
Time: 21:09:01
(UTC+00:00)

A-11 Canister half - Pass Details

Date: 28 June 2024
Orbit: 1524 x 1684 km, 47.3° (Epoch: 18 July)

Event Time Altitude Azimuth Distance (km) Brightness Sun altitude
Rises 15:37:31 0° 290° (WNW) 4,703 12.4 37.0°
Reaches altitude 10° 15:40:35 10° 290° (WNW) 3,707 12.1 36.4°
Maximum altitude 15:49:54 80° 205° (SSW) 1,545 9.7 34.8°
Drops below altitude 10° 15:59:12 10° 120° (ESE) 3,701 10.7 33.1°
Sets 16:02:15 0° 119° (ESE) 4,694 11.1 32.6°
